Simultaneous Nadir Overpasses (SNOs) Predictions

Prediction of SNOs between GOES-16 and TERRA Satellite Orbit:

Table of predicted SNOs for the next 14.0 days since TLE Epoch: 6/3/2023
Index Date Time (GOES-16) GOES-16 Lat,Lon TERRA Lat,Lon Distance(km) Time Diff (sec)
1 06/03/2023 15:22:56 -0.01, -75.20 0.74, -78.76 404.78 80
2 06/05/2023 15:03:57 -0.02, -75.21 -0.07, -74.82 43.20 80
3 06/07/2023 14:47:39 -0.03, -75.21 -0.95, -70.89 491.26 80
4 06/08/2023 03:10:40 0.03, -75.21 -0.09, -75.84 71.26 80
5 06/10/2023 02:51:41 0.04, -75.22 0.75, -71.90 378.14 80
6 06/10/2023 15:14:32 -0.03, -75.23 0.28, -76.80 177.80 80
7 06/12/2023 14:55:32 -0.04, -75.26 -0.52, -72.85 273.05 80
8 06/13/2023 03:18:33 0.03, -75.26 -0.51, -77.80 288.62 80
9 06/15/2023 02:59:33 0.03, -75.29 0.32, -73.85 163.05 80
10 06/15/2023 15:22:23 -0.02, -75.31 0.71, -78.76 392.55 80
